GW4318 Weather Reports


Display with metric or nautical units.
time (UTC)temp
F
wind
direction
speed
MPH
gust
MPH
rain 1hr
in
rain 24hr
in
rain mn
in
humidity
%
barometer
mb
20260903154028 68 155 1.0 2.0 0.00 0.07 0.07 91 1013.7
20260903153028 68 2 0.0 1.0 0.00 0.07 0.07 91 1014.0
20260903152108 68 269 1.0 2.0 0.00 0.07 0.07 92 1014.1
20260903151028 67 93 1.0 2.0 0.00 0.07 0.07 93 1014.2
20260903150029 66 247 0.0 1.0 0.00 0.07 0.07 93 1014.2
20260903145029 66 6 0.0 1.0 0.00 0.07 0.07 93 1014.3
20260903144029 66 306 1.0 3.0 0.00 0.07 0.07 93 1014.4
20260903143029 65 154 0.0 2.0 0.00 0.07 0.07 94 1014.3
20260903142030 65 189 1.0 2.0 0.00 0.07 0.07 95 1014.4
20260903141030 64 193 1.0 2.0 0.00 0.07 0.07 95 1014.5
20260903140030 64 320 0.0 1.0 0.00 0.07 0.07 95 1014.8
20260903135030 64 158 1.0 1.0 0.00 0.07 0.07 95 1014.9
20260903134030 64 262 0.0 2.0 0.00 0.07 0.07 95 1014.8
20260903133050 64 314 0.0 1.0 0.00 0.07 0.07 95 1014.7
20260903132030 63 280 0.0 1.0 0.00 0.07 0.07 95 1014.7
20260903131030 63 219 0.0 1.0 0.00 0.07 0.07 96 1014.7
20260903130030 63 192 0.0 1.0 0.00 0.07 0.07 96 1014.7
20260903125031 63 154 0.0 1.0 0.00 0.07 0.07 97 1014.9
20260903124031 63 0.0 0.0 0.00 0.07 0.07 97 1015.2
20260903123051 62 0.0 0.0 0.00 0.07 0.07 97 1015.3
20260903122031 62 107 0.0 1.0 0.00 0.07 0.07 97 1015.4
20260903121031 62 127 0.0 1.0 0.00 0.07 0.07 97 1015.4
20260903120031 62 132 0.0 1.0 0.00 0.07 0.07 97 1015.5
20260903115031 62 310 0.0 1.0 0.00 0.07 0.07 97 1015.6
20260903114031 62 93 0.0 1.0 0.00 0.07 0.07 97 1015.7
20260903113032 62 83 0.0 0.0 0.00 0.07 0.07 97 1015.8
20260903112032 62 267 0.0 1.0 0.00 0.07 0.07 97 1015.8
20260903111037 62 122 1.0 1.0 0.00 0.07 0.07 96 1015.6
20260903110017 62 126 0.0 1.0 0.01 0.07 0.07 96 1015.8
20260903105017 62 146 0.0 1.0 0.02 0.07 0.07 96 1015.9
20260903104038 62 106 2.0 3.0 0.02 0.07 0.07 96 1015.7
20260903103018 62 183 1.0 2.0 0.04 0.07 0.07 96 1015.8
20260903102017 62 258 1.0 2.0 0.05 0.07 0.07 96 1015.6
20260903101016 62 275 1.0 2.0 0.05 0.07 0.07 96 1015.5
20260903100018 62 100 1.0 2.0 0.04 0.05 0.05 96 1015.4
20260903095018 62 314 0.0 1.0 0.03 0.05 0.05 95 1015.6
20260903094019 62 161 1.0 2.0 0.03 0.05 0.05 95 1015.6
20260903093019 62 295 0.0 2.0 0.00 0.02 0.02 95 1015.8
20260903092018 62 292 0.0 1.0 0.00 0.02 0.02 94 1015.7
20260903091059 62 121 0.0 1.0 0.00 0.02 0.02 94 1016.0
20260903090017 62 315 0.0 1.0 0.02 0.02 0.02 94 1016.0
20260903085057 62 19 0.0 1.0 0.02 0.02 0.02 93 1015.9
20260903084018 62 88 0.0 1.0 0.02 0.02 0.02 92 1016.0
20260903083017 62 165 1.0 1.0 0.02 0.02 0.02 91 1016.1
20260903082017 63 125 1.0 2.0 0.02 0.02 0.02 89 1016.5
20260903081038 65 291 1.0 2.0 0.01 0.01 0.01 83 1016.5
20260903080018 65 132 1.0 3.0 0.00 0.00 0.00 80 1016.2
20260903075018 65 143 1.0 3.0 0.00 0.00 0.00 80 1016.2
20260903074018 65 119 1.0 2.0 0.00 0.00 0.00 80 1016.3
20260903073018 65 124 1.0 3.0 0.00 0.00 0.00 80 1016.3
20260903072018 65 124 1.0 3.0 0.00 0.00 0.00 80 1016.4
20260903071018 65 149 1.0 3.0 0.00 0.00 0.00 80 1016.6
20260903070019 65 134 2.0 4.0 0.00 0.00 0.00 80 1016.8
20260903065038 65 139 0.0 2.0 0.00 0.00 0.00 81 1017.1
20260903064019 65 149 1.0 2.0 0.00 0.00 0.00 81 1017.4
20260903063019 65 157 1.0 2.0 0.00 0.00 0.00 80 1017.6
20260903062019 65 217 0.0 2.0 0.00 0.00 0.00 81 1017.9
20260903061019 65 112 0.0 1.0 0.00 0.00 0.00 81 1017.9
20260903060019 65 130 1.0 2.0 0.00 0.00 0.00 80 1018.2
20260903055040 65 112 1.0 3.0 0.00 0.00 0.00 80 1018.4
20260903054020 65 114 2.0 5.0 0.00 0.00 0.00 81 1018.6
20260903053020 65 144 0.0 3.0 0.00 0.00 0.00 81 1018.6
20260903052020 65 177 1.0 2.0 0.00 0.00 0.00 81 1018.4
20260903051020 65 115 0.0 1.0 0.00 0.00 0.00 82 1018.4
20260903050020 65 139 1.0 1.0 0.00 0.00 0.00 82 1018.7
20260903045020 65 101 1.0 2.0 0.00 0.00 0.00 81 1019.0
20260903044020 65 138 1.0 2.0 0.00 0.00 0.00 81 1019.0
20260903043041 65 115 1.0 3.0 0.00 0.00 0.00 81 1018.9
20260903042021 65 170 2.0 3.0 0.00 0.00 0.00 81 1018.8
20260903041021 65 137 1.0 2.0 0.00 0.00 0.00 81 1018.9
20260903040021 65 68 0.0 1.0 0.00 0.00 0.00 82 1018.9
20260903035021 65 103 1.0 3.0 0.00 0.00 0.00 83 1018.7
20260903034023 65 104 0.0 2.0 0.00 0.00 0.00 84 1019.0
20260903033021 65 124 1.0 2.0 0.00 0.00 0.00 84 1019.2
20260903032021 65 144 0.0 1.0 0.00 0.00 0.00 83 1019.4
20260903031017 65 123 0.0 2.0 0.00 0.00 0.00 83 1019.4
20260903030018 65 118 1.0 2.0 0.00 0.00 0.00 83 1019.6
20260903025020 66 113 0.0 2.0 0.00 0.00 0.00 83 1019.8
20260903024018 66 130 1.0 2.0 0.00 0.00 0.00 82 1019.7
20260903023018 66 118 1.0 3.0 0.00 0.00 0.00 82 1019.7
20260903022018 66 125 1.0 3.0 0.00 0.00 0.00 81 1019.7
20260903021019 66 129 1.0 2.0 0.00 0.00 0.00 81 1019.7
20260903020018 65 130 1.0 3.0 0.00 0.00 0.00 81 1019.8
20260903015018 66 117 1.0 2.0 0.00 0.00 0.00 81 1019.9
20260903014039 66 136 1.0 3.0 0.00 0.00 0.00 80 1019.8
20260903013016 66 107 1.0 2.0 0.00 0.00 0.00 81 1019.6
20260903012019 66 101 0.0 2.0 0.00 0.00 0.00 80 1019.6
20260903011019 66 129 0.0 2.0 0.00 0.00 0.00 80 1019.8
20260903010019 66 143 1.0 3.0 0.00 0.00 0.00 79 1019.7
20260903005017 66 141 2.0 5.0 0.00 0.00 0.00 79 1019.8
20260903004016 66 123 0.0 2.0 0.00 0.00 0.00 79 1019.8
20260903003017 66 106 0.0 1.0 0.00 0.00 0.00 80 1019.9
20260903002020 66 133 0.0 3.0 0.00 0.00 0.00 82 1019.9
20260903001020 66 116 0.0 1.0 0.00 0.00 0.00 82 1020.1
20260903000040 66 43 0.0 1.0 0.00 0.00 0.00 81 1020.4
20260902235017 66 127 0.0 1.0 0.00 0.00 0.00 81 1020.5
20260902234037 66 331 0.0 1.0 0.00 0.00 0.00 79 1020.5
20260902233018 66 119 0.0 1.0 0.00 0.00 0.00 79 1020.7
20260902232020 67 129 1.0 2.0 0.00 0.00 0.00 78 1020.7
20260902231018 67 152 1.0 4.0 0.00 0.00 0.00 76 1020.7
20260902230018 67 113 1.0 3.0 0.00 0.00 0.00 76 1020.7
20260902225038 68 211 1.0 4.0 0.00 0.00 0.00 76 1020.8
20260902224018 68 127 1.0 3.0 0.00 0.00 0.00 75 1020.8
20260902223018 68 85 0.0 2.0 0.00 0.00 0.00 73 1021.1
20260902222018 69 137 1.0 3.0 0.00 0.00 0.00 70 1021.1
20260902221039 69 169 1.0 3.0 0.00 0.00 0.00 70 1020.9
20260902220018 70 229 0.0 2.0 0.00 0.00 0.00 71 1020.8
20260902215019 70 116 1.0 3.0 0.00 0.00 0.00 71 1020.9
20260902214018 70 20 1.0 3.0 0.00 0.00 0.00 70 1020.9
20260902213016 70 130 1.0 3.0 0.00 0.00 0.00 70 1020.7
20260902212019 71 50 1.0 4.0 0.00 0.00 0.00 69 1020.4
20260902211019 71 124 2.0 4.0 0.00 0.00 0.00 67 1020.3
20260902210040 71 133 2.0 9.0 0.00 0.00 0.00 67 1020.7
20260902205017 71 155 2.0 4.0 0.00 0.00 0.00 66 1020.8
20260902204016 72 154 2.0 7.0 0.00 0.00 0.00 65 1020.9
20260902203017 72 311 1.0 3.0 0.00 0.00 0.00 65 1021.1
20260902202020 71 300 1.0 4.0 0.00 0.00 0.00 66 1021.1
20260902201020 72 123 2.0 5.0 0.00 0.00 0.00 65 1021.3
20260902200017 72 119 1.0 5.0 0.00 0.00 0.00 64 1021.3
20260902195038 72 119 1.0 7.0 0.00 0.00 0.00 62 1021.4
20260902194018 72 19 1.0 4.0 0.00 0.00 0.00 63 1021.4
20260902193018 72 91 1.0 3.0 0.00 0.00 0.00 64 1021.4
20260902192021 72 307 1.0 6.0 0.00 0.01 0.00 63 1021.4
20260902191038 73 105 1.0 3.0 0.00 0.02 0.00 61 1021.3
20260902190018 74 140 2.0 5.0 0.00 0.03 0.00 58 1021.5
20260902185018 74 146 2.0 4.0 0.00 0.03 0.00 57 1021.5
20260902184018 74 126 1.0 6.0 0.00 0.03 0.00 58 1021.5
20260902183018 74 101 1.0 4.0 0.00 0.04 0.00 59 1021.4
20260902182018 73 162 2.0 4.0 0.00 0.04 0.00 61 1021.4
20260902181019 73 152 3.0 9.0 0.00 0.04 0.00 62 1021.5
20260902180019 73 155 2.0 6.0 0.00 0.04 0.00 62 1021.4
20260902175019 73 149 2.0 5.0 0.00 0.04 0.00 61 1021.4
20260902174039 74 126 2.0 7.0 0.00 0.05 0.00 62 1021.4
20260902173016 74 158 2.0 6.0 0.00 0.06 0.00 62 1021.5
20260902172039 74 123 1.0 8.0 0.00 0.07 0.00 61 1021.5
20260902171019 74 107 1.0 4.0 0.00 0.07 0.00 61 1021.5
20260902170019 74 164 2.0 5.0 0.00 0.10 0.00 64 1021.7
20260902165017 73 181 1.0 4.0 0.00 0.10 0.00 67 1021.8
20260902164017 72 150 2.0 8.0 0.00 0.10 0.00 66 1021.9
20260902163016 72 133 2.0 7.0 0.00 0.10 0.00 67 1021.9
20260902162100 72 143 1.0 4.0 0.00 0.10 0.00 71 1022.1
20260902161020 71 146 2.0 8.0 0.00 0.10 0.00 69 1022.1
20260902160017 71 156 2.0 4.0 0.00 0.10 0.00 72 1022.1
20260902155018 71 123 2.0 5.0 0.00 0.10 0.00 75 1022.2